CW9561 Weather Reports


time (UTC)temp
C
wind
direction
speed
KPH
gust
KPH
rain 1hr
cm
rain 24hr
cm
rain mn
cm
humidity
%
barometer
mb
20260904171039 20 214 3.2 0.0 0.00 0.00 0.00 46 1026.2
20260904170034 20 194 3.2 0.0 0.00 0.00 0.00 45 1026.0
20260904165035 20 234 3.2 0.0 0.00 0.00 0.00 47 1026.0
20260904164031 20 86 1.6 0.0 0.00 0.00 0.00 48 1026.1
20260904163031 18 337 0.0 0.0 0.00 0.00 0.00 49 1026.2
20260904162027 17 97 4.8 0.0 0.00 0.00 0.00 50 1026.3
20260904161025 17 65 0.0 0.0 0.00 0.00 0.00 48 1026.4
20260904160021 16 82 1.6 0.0 0.00 0.00 0.00 50 1026.6
20260904155038 15 29 0.0 0.0 0.00 0.00 0.00 48 1026.8
20260904154038 15 84 0.0 0.0 0.00 0.00 0.00 50 1026.8
20260904153035 15 15 0.0 0.0 0.00 0.00 0.00 49 1026.7
20260904151031 13 14 0.0 0.0 0.00 0.00 0.00 52 1027.1
20260904150027 13 11 0.0 0.0 0.00 0.00 0.00 54 1026.5
20260904145027 12 360 0.0 0.0 0.00 0.00 0.00 54 1026.4
20260904144021 12 360 0.0 0.0 0.00 0.00 0.00 57 1026.5
20260904143022 11 350 0.0 0.0 0.00 0.00 0.00 58 1026.5
20260904142022 11 153 0.0 0.0 0.00 0.00 0.00 58 1026.4
20260904141023 11 153 0.0 0.0 0.00 0.00 0.00 59 1026.1
20260904140020 11 155 0.0 0.0 0.00 0.00 0.00 59 1026.0
20260904135023 12 161 0.0 0.0 0.00 0.00 0.00 58 1025.9
20260904133037 8 215 0.0 0.0 0.00 0.00 0.00 70 1025.8
20260904132037 7 215 0.0 0.0 0.00 0.00 0.00 74 1025.4
20260904131036 6 215 0.0 0.0 0.00 0.00 0.00 76 1025.5
20260904130031 6 215 0.0 0.0 0.00 0.00 0.00 77 1025.5
20260904125028 5 215 0.0 0.0 0.00 0.00 0.00 77 1025.4
20260904124032 5 215 0.0 0.0 0.00 0.00 0.00 77 1025.4
20260904123029 5 215 0.0 0.0 0.00 0.00 0.00 76 1025.2
20260904122029 5 215 0.0 0.0 0.00 0.00 0.00 76 1025.0
20260904121026 5 215 0.0 0.0 0.00 0.00 0.00 75 1024.9
20260904120028 5 215 4.8 0.0 0.00 0.00 0.00 76 1024.8
20260904115029 5 215 6.4 0.0 0.00 0.00 0.00 75 1024.7
20260904114026 6 215 6.4 0.0 0.00 0.00 0.00 74 1024.6
20260904113023 6 215 4.8 0.0 0.00 0.00 0.00 74 1024.5
20260904112038 6 215 0.0 0.0 0.00 0.00 0.00 74 1024.4
20260904111018 6 215 0.0 0.0 0.00 0.00 0.00 74 1024.4
20260904110019 6 215 0.0 0.0 0.00 0.00 0.00 72 1024.9
20260904105017 6 215 0.0 0.0 0.00 0.00 0.00 72 1024.9
20260904104036 7 215 0.0 0.0 0.00 0.00 0.00 71 1024.8
20260904103015 7 215 0.0 0.0 0.00 0.00 0.00 69 1024.6
20260904102036 7 215 0.0 0.0 0.00 0.00 0.00 68 1024.6
20260904101034 7 215 3.2 0.0 0.00 0.00 0.00 68 1024.6
20260904095033 7 215 0.0 0.0 0.00 0.00 0.00 67 1024.6
20260904094030 7 215 1.6 0.0 0.00 0.00 0.00 66 1024.5
20260904093031 7 215 3.2 0.0 0.00 0.00 0.00 65 1024.4
20260904092026 8 215 3.2 0.0 0.00 0.00 0.00 63 1024.4
20260904091026 8 215 0.0 0.0 0.00 0.00 0.00 61 1024.3
20260904090023 8 215 0.0 0.0 0.00 0.00 0.00 60 1024.2
20260904085022 8 215 0.0 0.0 0.00 0.00 0.00 60 1024.3
20260904084038 8 215 0.0 0.0 0.00 0.00 0.00 60 1024.2
20260904083022 9 215 0.0 0.0 0.00 0.00 0.00 58 1024.3
20260904082020 9 215 0.0 0.0 0.00 0.00 0.00 58 1024.2
20260904081036 9 215 0.0 0.0 0.00 0.00 0.00 58 1024.1
20260904080033 10 215 0.0 0.0 0.00 0.00 0.00 56 1024.2
20260904075034 10 215 0.0 0.0 0.00 0.00 0.00 56 1024.1
20260904074035 9 215 0.0 0.0 0.00 0.00 0.00 56 1024.2
20260904073034 9 215 0.0 0.0 0.00 0.00 0.00 57 1024.2
20260904072032 10 215 0.0 0.0 0.00 0.00 0.00 55 1024.2
20260904071030 10 215 0.0 0.0 0.00 0.00 0.00 54 1024.3
20260904065034 11 215 0.0 0.0 0.00 0.00 0.00 53 1024.5
20260904064029 11 215 0.0 0.0 0.00 0.00 0.00 50 1024.6
20260904063024 11 215 0.0 0.0 0.00 0.00 0.00 50 1024.6
20260904062027 11 215 0.0 0.0 0.00 0.00 0.00 50 1024.7
20260904060031 11 215 0.0 0.0 0.00 0.00 0.00 49 1024.5
20260904054027 11 215 0.0 0.0 0.00 0.00 0.00 51 1024.5
20260904053024 11 215 0.0 0.0 0.00 0.00 0.00 51 1024.5
20260904052027 11 215 0.0 0.0 0.00 0.00 0.00 52 1024.4
20260904051023 10 215 0.0 0.0 0.00 0.00 0.00 55 1024.2
20260904050039 10 215 0.0 0.0 0.00 0.00 0.00 53 1024.4
20260904045035 10 215 0.0 0.0 0.00 0.00 0.00 55 1024.3
20260904044034 10 215 4.8 0.0 0.00 0.00 0.00 55 1024.3
20260904043037 10 215 6.4 0.0 0.00 0.00 0.00 53 1024.4
20260904042033 11 215 3.2 0.0 0.00 0.00 0.00 52 1024.3
20260904041031 11 215 1.6 0.0 0.00 0.00 0.00 53 1024.3
20260904040029 11 215 3.2 0.0 0.00 0.00 0.00 51 1024.5
20260904034030 12 138 0.0 0.0 0.00 0.00 0.00 46 1024.4
20260904033027 13 138 0.0 0.0 0.00 0.00 0.00 44 1024.3
20260904032023 14 137 0.0 0.0 0.00 0.00 0.00 43 1024.3
20260904025024 14 243 0.0 0.0 0.00 0.00 0.00 42 1023.9
20260904023026 14 242 1.6 0.0 0.00 0.00 0.00 43 1023.7
20260904021028 15 243 0.0 0.0 0.00 0.00 0.00 41 1023.7
20260904020026 15 242 0.0 0.0 0.00 0.00 0.00 39 1023.5
20260904015022 16 243 0.0 0.0 0.00 0.00 0.00 39 1023.5
20260904014037 16 242 0.0 0.0 0.00 0.00 0.00 38 1023.4
20260904013035 17 243 0.0 0.0 0.00 0.00 0.00 36 1023.4
20260904012018 17 242 0.0 0.0 0.00 0.00 0.00 38 1023.5
20260904011037 17 242 0.0 0.0 0.00 0.00 0.00 35 1023.4
20260904010037 18 148 0.0 0.0 0.00 0.00 0.00 34 1023.5
20260904005032 18 209 0.0 0.0 0.00 0.00 0.00 32 1023.5
20260904004033 19 258 0.0 0.0 0.00 0.00 0.00 33 1023.4
20260904003029 20 295 1.6 0.0 0.00 0.00 0.00 32 1023.4
20260904001031 20 206 0.0 0.0 0.00 0.00 0.00 30 1023.5
20260904000026 20 221 1.6 0.0 0.00 0.00 0.00 30 1023.5
20260903235026 21 313 1.6 0.0 0.00 0.00 0.00 30 1023.5
20260903234024 21 246 0.0 0.0 0.00 0.00 0.00 31 1023.7
20260903233021 21 198 0.0 0.0 0.00 0.00 0.00 29 1022.9
20260903232016 21 194 1.6 0.0 0.00 0.00 0.00 30 1023.0
20260903230022 21 5 1.6 0.0 0.00 0.00 0.00 29 1023.2
20260903225039 22 188 1.6 0.0 0.00 0.00 0.00 27 1023.3
20260903224034 22 213 1.6 0.0 0.00 0.00 0.00 29 1023.3
20260903223029 22 253 0.0 0.0 0.00 0.00 0.00 27 1023.3
20260903222033 22 259 1.6 0.0 0.00 0.00 0.00 27 1023.3
20260903221029 22 214 0.0 0.0 0.00 0.00 0.00 28 1023.8
20260903220027 22 126 1.6 0.0 0.00 0.00 0.00 28 1023.6
20260903214027 22 236 1.6 0.0 0.00 0.00 0.00 29 1023.9
20260903213027 22 221 3.2 0.0 0.00 0.00 0.00 30 1024.0
20260903212022 22 307 3.2 0.0 0.00 0.00 0.00 30 1024.4
20260903211019 21 111 1.6 0.0 0.00 0.00 0.00 30 1024.4
20260903210038 21 272 1.6 0.0 0.00 0.00 0.00 32 1024.4
20260903205019 21 266 3.2 0.0 0.00 0.00 0.00 32 1024.6
20260903204017 21 113 4.8 0.0 0.00 0.00 0.00 34 1024.5
20260903203039 21 286 1.6 0.0 0.00 0.00 0.00 33 1024.8
20260903200019 20 117 4.8 0.0 0.00 0.00 0.00 36 1024.6
20260903194017 20 237 3.2 0.0 0.00 0.00 0.00 35 1024.9
20260903193038 20 117 1.6 0.0 0.00 0.00 0.00 37 1024.7
20260903190040 20 326 0.0 0.0 0.00 0.00 0.00 38 1025.1
20260903185038 20 136 4.8 0.0 0.00 0.00 0.00 39 1025.1
20260903182034 20 263 1.6 0.0 0.00 0.00 0.00 41 1025.2
20260903181034 19 214 1.6 0.0 0.00 0.00 0.00 42 1025.2
20260903180029 20 241 1.6 0.0 0.00 0.00 0.00 40 1025.3
20260903175024 19 154 1.6 0.0 0.00 0.00 0.00 42 1025.5
20260903173028 18 134 1.6 0.0 0.00 0.00 0.00 45 1025.4
20260903172026 18 169 1.6 0.0 0.00 0.00 0.00 46 1025.3